Regional Weather Roundup
Issued by NWS Green Bay, WI

Home | Current Version | Previous Version | Graphics & Text | Print | Product List | Glossary Off
Versions: 1 2 3 4 5 6 7 8 9 10 11 12 13 14 15 16 17 18 19 20 21 22 23 24 25 26 27 28 29 30 31 32 33 34 35 36 37 38 39 40 41 42 43 44 45 46 47 48 49 50

000
ASUS43 KGRB 190111
RWRGRB

NORTH-CENTRAL AND NORTHEAST WISCONSIN REGIONAL WEATHER ROUNDUP
NATIONAL WEATHER SERVICE GREEN BAY WI
800 PM CDT WED OCT 18 2017

WIZ005-009-010>012-018-019-190200-
NORTH CENTRAL WISCONSIN

CITY           SKY/WX    TMP DP  RH WIND       PRES   REMARKS
IRONWOOD       CLEAR     55  30  38 W7        29.78R
MANITOWISH WTR CLEAR     58  42  54 SW9G20    29.79S
ARBOR VITAE    CLEAR     60  44  55 W8        29.80S
EAGLE RIVER    CLEAR     58  44  58 W13       29.79S
LAND O LAKES   CLEAR     61  45  56 W6        29.80R
RHINELANDER    CLEAR     61  48  62 W15G23    29.82R
PHILLIPS       CLOUDY    58  43  56 SW10      29.82S
ANTIGO         CLEAR     60  47  62 SW14      29.84R
TOMAHAWK       CLEAR     60  45  57 SW6       29.84R
MERRILL        CLEAR     62  48  60 W12G18    29.85R
$$

WIZ013-073-190200-
NORTHEAST WISCONSIN

CITY           SKY/WX    TMP DP  RH WIND       PRES   REMARKS
IRON MOUNTAIN  CLEAR     65  45  48 SW9       29.75R
MARINETTE      CLEAR     64  48  56 SW16      29.81F
OCONTO         CLEAR     65  46  49 SW12G17   29.83S
$$

WIZ017-030-035>037-045-190200-
CENTRAL WISCONSIN

CITY           SKY/WX    TMP DP  RH WIND       PRES   REMARKS
MEDFORD        CLEAR     59  46  61 SW8       29.86R
WAUSAU         CLEAR     63  48  58 SW13      29.84R
MOSINEE        PTCLDY    59  48  67 S8        29.87R
MARSHFIELD     CLEAR     61  47  59 W12       29.87R
WISC RAPIDS    CLEAR     63  48  58 SW8       29.89R
STEVENS POINT  CLEAR     60  46  60 SW8       29.87S
WAUPACA        CLEAR     64  47  54 S8        29.88F
SHAWANO        CLEAR     66  46  48 SW5       29.84S
CLINTONVILLE   CLEAR     64  45  48 SW14      29.86S
WAUTOMA        CLEAR     63  47  55 S7        29.91S
$$

WIZ038-039-048-051-190200-
FOX VALLEY

CITY           SKY/WX    TMP DP  RH WIND       PRES   REMARKS
NWS GREEN BAY  CLEAR     64  47  53 SW14G25   29.87S
APPLETON       PTCLDY    63  41  45 SW17G23   29.88R
OSHKOSH        CLEAR     62  45  53 SW14      29.91R
FOND DU LAC    CLEAR     63  43  48 S12G20    29.93R
$$

WIZ022-050-052-190200-
EAST CENTRAL WISCONSIN

CITY           SKY/WX    TMP DP  RH WIND       PRES   REMARKS
EPHRAIM        FAIR      58  48  69 S8        29.82S
WASHINGTON ISL FAIR      57  52  83 S15G28    29.81S
STURGEON BAY   PTCLDY    59  48  67 S14       29.85F
MANITOWOC      PTCLDY    63  44  50 SW9       29.91S
SHEBOYGAN      PTCLDY    61  46  57 S12       29.93R
$$

LMZ563-521-522-541>543-190200-
LAKESHORE

STATION/POSITION TIME  TEMP    WIND        PRES    VSBY  WAVE
                       AIR SEA DIR/SP/G                  HT/PER
                 (UTC) (F)     (DEG/KT/KT) (MB)    (MI)  (FT/S)
SHEBOYGAN LKSHOR 0100   65     200/ 17/ 19 1013.2R
KEWAUNEE LKSHORE 0042   58     180/ 11/ 12 1011.3S
NORTHPORT PIER   0040   59     160/  8/ 13 1009.5F
N MID LAKE BUOY  0050   62 59  190/ 27/ 33 1009.5F        14/ 9
S GREEN BAY BUOY 0100   63 58  200/ 19/ 23 1010.3
SISTER BAY LKSHO 0104   61     180/ 17/ 20   N/A
MENOMINEE LKSHOR 0036   65     200/ 15/ 19 1009.4F
$$




USA.gov is the U.S. government's official web portal to all federal, state and local government web resources and services.